Weather History for Abbeville, LA

Change the Weather History Date:

Monday, September 2, 2013

  Actual Average (KARA) Record (KARA)
Temperature  
Mean Temperature 84 °F 82 °F  
Max Temperature 95 °F 91 °F 101 °F (2000)
Min Temperature 73 °F 72 °F 59 °F (1954)
Degree Days  
Heating Degree Days 0 0  
Month to date heating degree days 0  
Since 1 July heating degree days 0  
Cooling Degree Days 19 17  
Month to date cooling degree days 34  
Year to date cooling degree days 2177  
Growing Degree Days 34 (Base 50)    
Moisture  
Dew Point 70 °F    
Average Humidity 69    
Maximum Humidity 100    
Minimum Humidity 28    
Precipitation  
Precipitation 0.00 in 0.16 in 4.10 in (2008)
Month to date precipitation 0.32  
Year to date precipitation 41.17  
Sea Level Pressure  
Sea Level Pressure 29.93 in    
Wind  
Wind Speed 4 mph (SW)    
Max Wind Speed 21 mph    
Max Gust Speed 26 mph    
Visibility 9 miles    
Events Fog , Thunderstorm    
T = Trace of Precipitation, MM = Missing Value Source: NWS Daily Summary

Daily Weather History Graph

Daily Weather History Graph

Search for Another Location

Airport:

Trip Planner

Search our weather history database for the weather conditions in past years. The results will help you decide how hot, cold, wet, or windy it might be!

Date:

Astronomy

Sep. 02, 2013 Rise Set
Actual Time 6:46 AM CDT 7:29 PM CDT
Civil Twilight 6:21 AM CDT 7:53 PM CDT
Nautical Twilight 5:53 AM CDT 8:22 PM CDT
Astronomical Twilight 5:23 AM CDT 8:51 PM CDT
Moon 4:10 AM CDT (9/2) 5:37 PM CDT (9/2)
Length of Visible Light 13h 31m
Length of Day
12h 43m
Waning Crescent, 8% of the Moon is Illuminated
Sep 2
Waning Crescent
Sep 5
New
Sep 12
First Quarter
Sep 19
Full
Sep 26
Last Quarter

Hourly Weather History & Observations

Time (CDT) Temp. Heat Index Dew Point Humidity Pressure Visibility Wind Dir Wind Speed Gust Speed Precip Events Conditions
12:15 AM 78.3 °F - 75.2 °F 90% 29.93 in 10.0 mi SSW 3.5 mph - N/A   Clear
12:35 AM 79.0 °F - 75.0 °F 88% 29.92 in 10.0 mi South 5.8 mph - N/A   Clear
12:55 AM 79.7 °F - 75.7 °F 88% 29.92 in 10.0 mi South 6.9 mph - N/A   Clear
1:15 AM 79.7 °F - 75.4 °F 87% 29.92 in 10.0 mi SSW 3.5 mph - N/A   Clear
1:35 AM 79.0 °F - 75.4 °F 89% 29.91 in 10.0 mi South 3.5 mph - N/A   Clear
1:55 AM 78.1 °F - 75.9 °F 93% 29.92 in 10.0 mi Calm Calm - N/A   Clear
2:15 AM 76.8 °F - 75.6 °F 96% 29.93 in 10.0 mi Calm Calm - N/A   Clear
2:35 AM 76.6 °F - 76.1 °F 98% 29.93 in 10.0 mi Calm Calm - N/A   Clear
2:55 AM 75.4 °F - 74.7 °F 98% 29.93 in 5.0 mi Calm Calm - N/A   Clear
3:15 AM 74.7 °F - 74.1 °F 98% 29.93 in 1.0 mi Calm Calm - N/A   Mist
3:35 AM 75.9 °F - 75.7 °F 99% 29.93 in 5.0 mi Calm Calm - N/A   Clear
3:55 AM 75.7 °F - 75.6 °F 99% 29.93 in 10.0 mi Calm Calm - N/A   Clear
4:15 AM 75.0 °F - 74.5 °F 98% 29.93 in 10.0 mi Calm Calm - N/A   Clear
4:35 AM 75.4 °F - 75.0 °F 99% 29.93 in 7.0 mi Calm Calm - N/A   Clear
4:55 AM 74.3 °F - 74.1 °F 99% 29.92 in 5.0 mi Calm Calm - N/A   Clear
5:15 AM 75.2 °F - 75.2 °F 100% 29.92 in 10.0 mi Calm Calm - N/A   Clear
5:35 AM 73.6 °F - 73.6 °F 100% 29.93 in 0.8 mi Calm Calm - N/A   Mist
5:55 AM 74.7 °F - 74.5 °F 99% 29.93 in 4.0 mi South 3.5 mph - N/A   Clear
6:15 AM 75.6 °F - 75.4 °F 99% 29.94 in 7.0 mi Calm Calm - N/A   Clear
6:35 AM 73.4 °F - 73.2 °F 99% 29.94 in 0.5 mi Calm Calm - N/A Fog Fog
6:55 AM 73.9 °F - 73.8 °F 99% 29.94 in 0.2 mi Calm Calm - N/A Fog Fog
7:15 AM 74.8 °F - 74.7 °F 99% 29.95 in 0.5 mi Calm Calm - N/A Fog Fog
7:35 AM 75.7 °F - 75.6 °F 99% 29.95 in 10.0 mi Calm Calm - N/A   Clear
7:55 AM 77.5 °F - 77.4 °F 99% 29.96 in 10.0 mi Calm Calm - N/A   Clear
8:15 AM 79.5 °F - 79.5 °F 100% 29.96 in 10.0 mi Calm Calm - N/A   Clear
8:35 AM 82.4 °F 91.2 °F 77.5 °F 85% 29.96 in 10.0 mi Calm Calm - N/A   Clear
8:55 AM 85.6 °F 94.2 °F 74.7 °F 70% 29.97 in 10.0 mi WSW 5.8 mph - N/A   Clear
9:15 AM 87.1 °F 94.1 °F 72.9 °F 62% 29.97 in 10.0 mi West 8.1 mph - N/A   Clear
9:35 AM 87.6 °F 93.5 °F 71.2 °F 58% 29.98 in 10.0 mi West 5.8 mph - N/A   Scattered Clouds
9:55 AM 89.2 °F 94.9 °F 70.7 °F 54% 29.99 in 10.0 mi WSW 6.9 mph - N/A   Mostly Cloudy
10:15 AM 89.6 °F 93.9 °F 68.5 °F 50% 29.99 in 10.0 mi WNW 9.2 mph - N/A   Mostly Cloudy
10:35 AM 90.7 °F 94.5 °F 67.8 °F 47% 29.99 in 10.0 mi WSW 6.9 mph - N/A   Scattered Clouds
10:55 AM 90.5 °F 93.3 °F 66.7 °F 45% 29.99 in 10.0 mi West 8.1 mph - N/A   Scattered Clouds
11:15 AM 92.8 °F 95.2 °F 65.5 °F 40% 29.99 in 10.0 mi WSW 9.2 mph - N/A   Scattered Clouds
11:35 AM 92.3 °F 94.7 °F 65.7 °F 41% 29.99 in 10.0 mi Calm Calm - N/A   Mostly Cloudy
11:55 AM 89.4 °F 91.2 °F 64.8 °F 44% 29.98 in 10.0 mi WSW 5.8 mph - N/A   Scattered Clouds
12:15 PM 92.7 °F 94.9 °F 65.3 °F 40% 29.98 in 10.0 mi WNW 5.8 mph - N/A   Scattered Clouds
12:35 PM 93.6 °F 94.2 °F 62.4 °F 35% 29.97 in 10.0 mi Calm Calm - N/A   Scattered Clouds
12:55 PM 94.5 °F 94.8 °F 61.3 °F 33% 29.96 in 10.0 mi West 3.5 mph - N/A   Clear
1:15 PM 94.8 °F 94.5 °F 59.7 °F 31% 29.95 in 10.0 mi WNW 3.5 mph - N/A   Clear
1:35 PM 93.6 °F 93.4 °F 60.8 °F 33% 29.95 in 10.0 mi WNW 3.5 mph - N/A   Scattered Clouds
1:55 PM 95.7 °F 94.7 °F 57.6 °F 28% 29.94 in 10.0 mi West 4.6 mph - N/A   Scattered Clouds
2:15 PM 95.9 °F 95.3 °F 58.8 °F 29% 29.94 in 10.0 mi South 8.1 mph - N/A Thunderstorm Mostly Cloudy
2:35 PM 91.6 °F 94.8 °F 66.7 °F 44% 29.93 in 10.0 mi SSW 20.7 mph 26.5 mph N/A   Mostly Cloudy
2:55 PM 91.9 °F 92.2 °F 61.7 °F 36% 29.92 in 10.0 mi SSW 9.2 mph - N/A   Mostly Cloudy
3:15 PM 89.8 °F 91.4 °F 64.6 °F 43% 29.91 in 10.0 mi South 11.5 mph 17.3 mph N/A   Scattered Clouds
3:35 PM 92.5 °F 95.0 °F 65.7 °F 41% 29.90 in 10.0 mi SSW 10.4 mph 16.1 mph N/A   Scattered Clouds
3:55 PM 91.9 °F 93.3 °F 63.7 °F 39% 29.89 in 10.0 mi WSW 9.2 mph - N/A   Scattered Clouds
4:15 PM 90.5 °F 91.8 °F 63.7 °F 41% 29.89 in 10.0 mi SW 8.1 mph - N/A   Mostly Cloudy
4:35 PM 90.9 °F 92.3 °F 64.0 °F 41% 29.89 in 10.0 mi SW 6.9 mph - N/A   Scattered Clouds
4:55 PM 92.7 °F 94.4 °F 64.0 °F 39% 29.88 in 10.0 mi SSW 8.1 mph - N/A   Scattered Clouds
5:15 PM 92.1 °F 93.6 °F 64.2 °F 39% 29.88 in 10.0 mi SSW 8.1 mph - N/A   Clear
5:35 PM 91.4 °F 94.5 °F 66.7 °F 44% 29.88 in 10.0 mi SSW 9.2 mph - N/A   Clear
5:55 PM 90.9 °F 94.0 °F 66.7 °F 45% 29.88 in 10.0 mi SSW 6.9 mph - N/A   Clear
6:15 PM 89.6 °F 92.2 °F 66.6 °F 46% 29.88 in 10.0 mi SSW 6.9 mph - N/A   Clear
6:35 PM 88.2 °F 91.3 °F 67.3 °F 50% 29.88 in 10.0 mi SW 5.8 mph - N/A   Clear
6:55 PM 88.0 °F 91.4 °F 67.8 °F 51% 29.88 in 10.0 mi SSW 5.8 mph - N/A   Clear
7:15 PM 86.9 °F 88.9 °F 65.5 °F 49% 29.88 in 10.0 mi SSW 6.9 mph - N/A   Clear
7:35 PM 85.5 °F 88.5 °F 67.8 °F 55% 29.88 in 10.0 mi SSW 6.9 mph - N/A   Clear
7:55 PM 84.6 °F 88.5 °F 69.1 °F 60% 29.89 in 10.0 mi South 4.6 mph - N/A   Clear
8:15 PM 83.8 °F 88.3 °F 70.5 °F 64% 29.90 in 10.0 mi SSW 4.6 mph - N/A   Clear
8:35 PM 83.5 °F 88.2 °F 71.2 °F 66% 29.90 in 10.0 mi South 5.8 mph - N/A   Clear
8:55 PM 81.7 °F 86.9 °F 73.0 °F 75% 29.91 in 10.0 mi South 4.6 mph - N/A   Clear
9:15 PM 81.7 °F 86.9 °F 73.2 °F 75% 29.90 in 10.0 mi South 4.6 mph - N/A   Clear
9:35 PM 82.0 °F 87.4 °F 72.9 °F 74% 29.91 in 10.0 mi SSW 3.5 mph - N/A   Clear
9:55 PM 81.7 °F 86.9 °F 73.0 °F 75% 29.93 in 10.0 mi SSW 3.5 mph - N/A   Clear
10:15 PM 80.6 °F 85.5 °F 73.9 °F 80% 29.93 in 10.0 mi Calm Calm - N/A   Clear
10:35 PM 79.2 °F - 73.9 °F 84% 29.93 in 10.0 mi South 4.6 mph - N/A   Clear
10:55 PM 80.1 °F 85.2 °F 75.6 °F 86% 29.94 in 10.0 mi SSW 3.5 mph - N/A   Clear
11:15 PM 79.9 °F - 74.7 °F 84% 29.94 in 10.0 mi Calm Calm - N/A   Clear
11:35 PM 79.2 °F - 75.7 °F 89% 29.94 in 10.0 mi South 3.5 mph - N/A   Clear
11:55 PM 79.2 °F - 76.3 °F 91% 29.94 in 10.0 mi Calm Calm - N/A   Clear